Total_Precipitation_Accumulation
0.00 0.00 0.00 0.00 0.00 0.00 0.01 0.02 0.04 0.12 0.19 0.17 0.21 0.27 0.29 0.34 0.42 0.85 0.58 0.22 0.10 0.03 0.01 0.02 0.02 0.04 0.05 0.06 0.06 0.09 0.10 0.11 0.11 0.10 0.09 0.09 0.08 0.08 0.08 0.08 0.11 0.15 0.18 0.17 0.16 0.15 0.15 0.13 0.10
0.00 0.00 0.00 0.00 0.00 0.00 0.01 0.02 0.05 0.10 0.15 0.15 0.18 0.24 0.23 0.23 0.22 0.18 0.24 0.17 0.10 0.05 0.02 0.01 0.02 0.03 0.04 0.05 0.05 0.09 0.11 0.10 0.09 0.09 0.08 0.08 0.08 0.09 0.09 0.11 0.16 0.22 0.27 0.27 0.22 0.19 0.17 0.14 0.10
0.00 0.00 0.00 0.00 0.00 0.00 0.02 0.04 0.07 0.09 0.11 0.16 0.21 0.33 0.32 0.22 0.22 0.17 0.20 0.15 0.12 0.07 0.04 0.02 0.02 0.03 0.03 0.03 0.04 0.07 0.09 0.09 0.09 0.09 0.09 0.09 0.10 0.10 0.13 0.16 0.20 0.26 0.29 0.28 0.24 0.22 0.20 0.14 0.09
0.00 0.00 0.00 0.00 0.00 0.00 0.02 0.06 0.09 0.09 0.09 0.14 0.16 0.33 0.36 0.25 0.27 0.25 0.21 0.19 0.14 0.10 0.06 0.03 0.03 0.04 0.03 0.03 0.04 0.06 0.08 0.09 0.11 0.13 0.13 0.13 0.13 0.14 0.18 0.25 0.29 0.28 0.28 0.28 0.29 0.28 0.23 0.15 0.09
0.00 0.00 0.00 0.00 0.00 0.00 0.01 0.04 0.07 0.07 0.07 0.09 0.17 0.33 0.47 0.43 0.43 0.42 0.35 0.30 0.24 0.16 0.10 0.08 0.07 0.06 0.05 0.04 0.05 0.08 0.10 0.14 0.19 0.23 0.21 0.18 0.17 0.18 0.22 0.30 0.32 0.31 0.35 0.34 0.32 0.25 0.18 0.11 0.10
0.00 0.00 0.00 0.00 0.00 0.00 0.01 0.02 0.04 0.06 0.06 0.09 0.21 0.45 0.74 0.84 0.84 0.77 0.68 0.44 0.33 0.21 0.22 0.16 0.12 0.10 0.09 0.09 0.09 0.12 0.16 0.19 0.22 0.24 0.22 0.19 0.18 0.19 0.23 0.26 0.26 0.29 0.31 0.25 0.17 0.13 0.10 0.09 0.10
0.00 0.00 0.00 0.00 0.00 0.00 0.01 0.04 0.05 0.05 0.07 0.09 0.21 0.45 0.72 0.98 1.07 1.04 0.92 0.67 0.55 0.42 0.44 0.34 0.19 0.15 0.12 0.15 0.16 0.16 0.16 0.17 0.22 0.23 0.20 0.17 0.16 0.16 0.17 0.18 0.19 0.20 0.16 0.13 0.10 0.08 0.07 0.07 0.07
0.00 0.00 0.00 0.00 0.01 0.01 0.02 0.05 0.08 0.08 0.11 0.13 0.27 0.51 0.91 1.02 0.91 1.02 0.96 0.81 0.86 0.84 0.76 0.42 0.20 0.17 0.14 0.13 0.15 0.18 0.19 0.19 0.19 0.18 0.16 0.13 0.12 0.13 0.14 0.13 0.14 0.15 0.15 0.13 0.10 0.07 0.06 0.05 0.05
0.00 0.00 0.00 0.00 0.01 0.01 0.02 0.04 0.07 0.06 0.08 0.18 0.25 0.38 0.74 0.85 0.83 1.02 1.04 1.07 1.08 0.98 0.79 0.56 0.32 0.22 0.19 0.18 0.15 0.16 0.17 0.18 0.17 0.16 0.15 0.13 0.13 0.15 0.15 0.11 0.14 0.16 0.16 0.12 0.11 0.09 0.07 0.06 0.05
0.00 0.00 0.00 0.00 0.00 0.01 0.01 0.03 0.05 0.07 0.07 0.15 0.21 0.34 0.61 0.76 0.94 1.06 1.15 1.36 1.15 1.02 0.86 0.70 0.59 0.43 0.32 0.26 0.28 0.27 0.22 0.21 0.19 0.24 0.20 0.22 0.35 0.39 0.31 0.33 0.30 0.25 0.20 0.16 0.16 0.14 0.11 0.09 0.07
0.00 0.00 0.00 0.00 0.00 0.00 0.00 0.02 0.04 0.07 0.14 0.36 0.35 0.47 0.58 0.73 0.92 1.11 1.30 1.53 1.50 1.34 1.05 0.90 0.81 0.78 0.63 0.53 0.49 0.42 0.39 0.41 0.39 0.49 0.44 0.50 0.59 0.52 0.49 0.56 0.46 0.39 0.31 0.25 0.27 0.20 0.14 0.14 0.16
0.00 0.00 0.00 0.00 0.00 0.00 0.00 0.01 0.02 0.07 0.21 0.35 0.39 0.51 0.68 0.75 0.84 1.06 1.30 1.50 1.64 1.58 1.36 1.27 0.98 0.85 0.85 0.96 0.93 0.66 0.59 0.58 0.53 0.63 0.63 0.72 0.83 0.81 0.83 0.83 0.67 0.63 0.57 0.54 0.47 0.40 0.36 0.33 0.30
0.00 0.00 0.00 0.00 0.00 0.00 0.00 0.00 0.02 0.06 0.09 0.17 0.28 0.44 0.58 0.62 0.76 0.95 1.32 1.79 2.04 2.01 1.74 1.55 1.34 1.11 1.05 1.20 1.20 0.86 0.79 0.87 1.01 1.06 0.89 0.91 0.89 0.92 1.02 0.99 0.95 0.90 0.94 0.89 0.75 0.64 0.71 0.70 0.59
0.00 0.00 0.00 0.00 0.00 0.00 0.00 0.00 0.01 0.05 0.06 0.15 0.22 0.35 0.56 0.71 1.01 1.29 1.57 2.02 2.28 2.32 2.10 1.84 1.64 1.46 1.37 1.38 1.34 1.22 1.08 1.21 1.33 1.31 1.24 1.16 1.15 1.26 1.30 1.35 1.31 1.19 1.20 1.20 1.09 1.02 1.01 0.92 0.85
0.00 0.00 0.00 0.00 0.00 0.00 0.00 0.01 0.03 0.04 0.05 0.11 0.19 0.33 0.52 0.71 1.00 1.30 1.75 2.01 2.06 2.04 1.94 1.92 1.73 1.72 1.71 1.65 1.57 1.55 1.55 1.65 1.77 1.73 1.59 1.44 1.44 1.69 1.69 1.70 1.61 1.52 1.52 1.59 1.52 1.40 1.31 1.12 0.99
0.00 0.00 0.00 0.00 0.00 0.00 0.00 0.03 0.11 0.06 0.05 0.08 0.17 0.30 0.37 0.53 0.80 1.09 1.40 1.63 1.73 2.06 2.12 2.11 2.05 1.94 1.93 1.97 1.92 1.91 1.92 2.08 2.14 2.20 2.18 1.96 1.83 1.97 2.06 2.08 1.97 1.85 1.76 1.88 1.93 1.80 1.67 1.50 1.41
0.00 0.01 0.01 0.01 0.01 0.00 0.01 0.05 0.11 0.09 0.11 0.16 0.28 0.40 0.39 0.50 0.74 1.00 1.29 1.56 1.77 1.96 2.21 2.19 2.14 2.19 2.17 2.25 2.20 2.31 2.43 2.47 2.46 2.49 2.56 2.51 2.41 2.47 2.46 2.42 2.40 2.33 2.33 2.32 2.14 2.09 1.96 1.93 1.84
0.00 0.00 0.01 0.01 0.01 0.01 0.03 0.08 0.13 0.15 0.14 0.26 0.39 0.43 0.48 0.55 0.63 0.80 1.13 1.66 1.93 1.97 2.01 2.19 2.25 2.32 2.31 2.52 2.59 2.65 2.72 2.83 3.01 3.24 3.33 3.14 3.07 2.98 3.04 2.98 2.88 2.81 2.76 2.59 2.48 2.38 2.21 2.06 1.94
0.00 0.00 0.01 0.01 0.01 0.01 0.04 0.09 0.14 0.18 0.20 0.30 0.37 0.36 0.34 0.45 0.59 0.80 1.13 1.60 2.15 2.15 2.09 2.26 2.49 2.58 2.59 2.83 2.95 3.09 3.38 3.56 3.74 3.88 3.83 3.77 3.63 3.63 3.60 3.48 3.24 3.08 3.05 2.92 2.83 2.62 2.42 2.19 2.01
0.00 0.00 0.01 0.03 0.02 0.03 0.07 0.14 0.18 0.23 0.26 0.34 0.41 0.45 0.42 0.47 0.71 0.99 1.32 1.85 2.32 2.51 2.57 2.60 2.82 3.07 3.24 3.42 3.75 4.09 4.41 4.63 4.77 4.83 4.40 4.18 4.06 3.97 3.93 3.90 3.81 3.57 3.37 3.16 2.91 2.77 2.61 2.25 2.02
0.01 0.01 0.02 0.06 0.05 0.06 0.12 0.25 0.33 0.36 0.37 0.47 0.62 0.71 0.80 0.83 1.04 1.26 1.52 1.93 2.31 2.49 2.63 2.73 2.97 3.39 3.86 4.21 4.61 5.02 5.25 5.34 5.14 4.87 4.76 4.61 4.46 4.33 4.19 4.02 3.76 3.56 3.41 3.27 3.05 2.80 2.64 2.35 2.11
0.01 0.01 0.01 0.02 0.04 0.09 0.12 0.31 0.57 0.57 0.55 0.66 0.80 0.76 0.80 0.95 1.18 1.42 1.69 1.96 2.27 2.46 2.58 2.87 3.37 4.00 4.54 4.97 5.44 5.94 6.10 5.95 5.66 5.25 4.87 4.63 4.37 4.04 3.77 3.61 3.48 3.29 2.99 2.75 2.63 2.49 2.24 2.05 1.92
0.01 0.01 0.01 0.01 0.02 0.07 0.10 0.26 0.70 0.82 0.82 0.89 1.04 0.92 0.86 0.82 0.99 1.27 1.51 1.73 2.02 2.18 2.43 2.81 3.41 4.11 4.82 5.58 6.20 6.59 6.53 6.23 5.86 5.23 4.65 4.16 3.79 3.49 3.21 3.05 2.85 2.60 2.26 1.93 1.83 1.86 1.87 1.79 1.69
0.01 0.01 0.01 0.02 0.03 0.06 0.10 0.25 0.72 1.08 1.20 1.23 1.07 0.93 0.83 0.78 0.81 0.89 1.02 1.23 1.47 1.80 2.17 2.58 3.19 3.91 4.59 5.24 5.74 5.84 5.76 5.61 5.16 4.51 3.91 3.54 3.21 2.89 2.53 2.22 1.93 1.70 1.54 1.35 1.30 1.31 1.37 1.49 1.53
0.01 0.02 0.08 0.12 0.16 0.14 0.12 0.29 0.74 1.11 1.29 1.17 0.97 0.86 0.72 0.64 0.62 0.65 0.71 0.92 1.20 1.47 1.82 2.25 2.70 3.27 3.73 4.10 4.50 4.60 4.59 4.46 4.22 3.81 3.41 3.02 2.54 2.19 1.90 1.61 1.42 1.28 1.20 1.13 1.06 1.02 1.04 1.13 1.24
0.01 0.02 0.12 0.22 0.22 0.24 0.31 0.56 0.98 1.07 1.08 0.95 0.83 0.74 0.62 0.57 0.57 0.62 0.70 0.84 1.08 1.32 1.56 1.77 2.06 2.40 2.57 2.64 2.84 3.02 3.03 3.05 2.99 2.75 2.52 2.26 1.92 1.60 1.35 1.13 0.97 0.88 0.86 0.85 0.84 0.85 0.87 0.92 0.99
0.02 0.03 0.06 0.10 0.11 0.27 0.56 0.85 1.23 1.11 0.97 0.89 0.87 0.73 0.63 0.59 0.57 0.59 0.64 0.71 0.84 1.00 1.11 1.20 1.34 1.51 1.58 1.66 1.69 1.76 1.83 1.85 1.81 1.71 1.54 1.36 1.19 1.00 0.86 0.74 0.67 0.62 0.61 0.60 0.57 0.59 0.65 0.72 0.78
0.04 0.05 0.07 0.12 0.25 0.43 0.65 1.00 1.44 1.54 1.26 1.00 0.81 0.65 0.54 0.53 0.53 0.54 0.57 0.61 0.67 0.73 0.80 0.85 0.89 0.99 1.09 1.16 1.16 1.17 1.16 1.13 1.05 0.99 0.95 0.85 0.75 0.68 0.61 0.53 0.47 0.44 0.42 0.39 0.37 0.39 0.41 0.45 0.53
0.07 0.09 0.12 0.16 0.20 0.41 0.73 1.26 1.51 1.78 1.74 1.28 0.91 0.75 0.64 0.57 0.53 0.56 0.58 0.51 0.50 0.52 0.57 0.64 0.68 0.72 0.77 0.81 0.84 0.85 0.82 0.77 0.74 0.70 0.66 0.61 0.52 0.44 0.39 0.34 0.32 0.30 0.28 0.27 0.29 0.33 0.38 0.40 0.42
0.09 0.11 0.18 0.35 0.37 0.36 0.70 1.50 1.72 1.96 1.99 1.65 1.29 1.09 0.99 0.76 0.65 0.63 0.59 0.51 0.47 0.50 0.51 0.54 0.56 0.60 0.65 0.61 0.60 0.65 0.60 0.54 0.51 0.48 0.43 0.39 0.37 0.32 0.28 0.24 0.23 0.24 0.25 0.23 0.23 0.26 0.32 0.37 0.37